EHI
0 0 0 0 0 0 0 0 0 1 4 9 16 24 29 33 38 44 45 44 43 41 41 46 52 53 53 55 60 64 63 57 49 43 37 31 26 20 13 9 8 6 4 3
0 0 0 0 0 0 0 0 1 2 5 11 19 26 30 34 39 44 45 44 41 38 36 40 46 49 51 54 58 63 62 57 49 43 38 32 26 21 17 13 11 8 6 6
0 0 0 0 0 0 0 1 2 4 8 17 25 28 30 33 38 43 45 43 39 35 33 34 38 43 45 49 54 57 58 55 51 46 40 34 29 26 24 21 16 11 7 7
0 0 0 0 1 1 1 3 4 6 12 21 29 31 32 33 36 40 42 40 37 35 36 36 37 40 43 45 49 51 51 51 51 48 42 37 33 32 30 26 19 12 8 7
0 0 0 1 2 3 3 5 6 9 14 20 26 32 34 34 35 36 36 35 34 35 39 41 40 41 44 46 46 46 45 46 47 45 42 37 34 32 30 25 18 12 8 7
0 0 0 1 3 4 4 5 7 9 14 17 21 27 30 31 33 33 33 34 33 34 38 40 40 41 44 44 43 41 40 41 41 41 39 35 31 27 24 22 17 12 8 6
0 0 0 1 3 3 4 6 8 10 12 15 19 22 24 26 28 30 31 32 31 31 33 34 35 39 40 39 38 36 36 37 38 37 35 31 25 21 20 18 15 12 9 6
0 0 0 1 1 1 4 8 11 13 15 16 18 19 19 19 20 21 22 24 24 24 25 25 28 33 35 33 31 30 30 32 33 33 30 25 21 19 18 17 15 13 10 6
0 0 1 1 1 2 4 8 12 16 17 16 16 15 14 12 12 12 14 15 16 17 18 17 19 23 25 26 24 23 23 24 26 26 22 18 16 15 15 15 13 11 9 7
1 1 2 4 4 4 6 9 13 16 16 14 13 12 12 10 8 8 9 10 11 13 14 12 12 13 16 18 18 16 16 16 17 18 15 12 10 10 10 10 8 7 7 7
0 1 3 5 6 5 8 11 13 14 13 12 12 12 12 10 8 7 7 6 7 9 10 8 7 8 10 11 11 11 10 10 10 11 10 8 6 5 5 5 5 5 5 5
0 0 1 3 4 5 8 10 9 8 9 10 10 11 10 8 6 5 4 4 4 5 5 5 4 4 4 5 6 7 8 8 7 6 6 5 4 3 3 3 3 3 3 3
0 0 0 1 3 4 7 9 8 6 6 7 8 8 7 5 4 4 3 3 3 3 3 3 2 1 1 2 3 5 6 6 4 3 2 2 3 3 3 3 2 1 1 1
0 0 0 2 3 4 7 9 9 7 5 5 6 6 5 4 3 3 3 3 2 2 2 1 1 0 0 1 2 4 5 4 2 1 1 1 2 3 3 3 3 2 1 1
0 0 0 1 2 4 5 7 7 5 3 3 3 3 3 3 3 2 2 1 1 1 1 0 0 0 0 0 0 2 3 2 1 0 0 0 1 1 2 3 3 3 3 2
0 0 0 1 1 2 3 3 3 2 1 2 2 1 1 2 1 1 1 0 0 0 0 0 0 0 0 0 0 0 1 1 0 0 0 0 0 0 1 2 2 2 3 3
0 0 0 0 0 1 1 1 1 0 1 1 1 0 0 0 0 0 0 0 0 0 0 0 0 0 0 0 0 0 0 0 0 0 0 0 0 0 0 1 1 1 1 2
0 0 0 0 0 0 0 0 0 0 0 0 0 0 0 0 0 0 0 0 0 0 0 0 0 0 0 0 0 0 0 0 0 0 0 0 0 0 0 0 0 0 0 1
0 0 0 0 0 0 0 0 0 0 0 0 0 1 0 0 0 0 0 0 0 0 0 0 0 0 0 0 0 0 0 0 0 0 0 0 0 0 0 0 0 1 1 0
0 0 0 0 0 0 0 0 0 0 0 0 0 0 0 0 0 0 0 0 0 0 0 0 0 0 0 0 0 0 0 0 0 0 0 0 0 0 0 0 1 2 1 1
0 0 0 0 0 0 0 0 0 0 0 0 0 0 0 0 0 0 0 0 0 0 0 0 0 0 0 0 0 0 0 0 0 0 0 0 0 0 0 0 1 2 1 0
0 0 0 0 0 0 0 0 0 0 0 0 0 0 0 0 0 0 0 0 0 0 0 0 0 1 0 0 0 0 0 0 0 0 0 0 0 0 0 0 1 1 0 0
0 0 0 0 0 0 0 0 0 0 0 0 0 0 0 0 0 0 0 0 0 0 0 0 0 0 0 0 0 0 0 0 0 0 0 0 0 0 0 0 0 0 0 0
0 0 0 0 0 0 0 0 0 0 0 0 0 0 0 0 0 0 0 0 0 0 0 0 0 0 0 0 0 0 0 0 0 0 0 0 0 0 0 0 0 0 0 0
0 0 0 0 0 0 0 0 0 0 0 0 0 0 0 0 0 0 0 0 0 0 0 0 0 0 0 0 0 0 0 0 0 0 0 0 0 0 0 0 0 0 0 0
0 0 0 0 0 0 0 0 0 0 0 0 0 0 0 0 0 0 0 0 0 0 0 0 0 0 0 0 0 0 0 0 0 0 0 0 0 0 0 0 0 0 0 0
0 0 0 0 0 0 0 0 0 0 0 0 0 0 0 0 0 0 0 0 0 0 0 0 0 0 0 0 0 0 0 0 0 0 0 0 0 0 0 0 0 0 0 0
Wind_Speed
2 2 1 2 3 3 4 7 7 6 5 5 4 4 5 6 7 8 8 7 5 3 3 3 3 4 5 6 6 8 8 8 7 6 5 5 4 4 4 3 3 3 3 2
2 2 2 2 3 3 4 4 5 5 2 2 3 5 6 6 7 7 6 5 5 4 3 3 4 4 4 5 6 7 7 7 6 5 5 5 5 4 4 4 3 3 3 3
1 3 4 3 4 3 2 2 6 5 4 5 6 7 5 5 6 6 5 4 4 2 2 2 3 4 5 5 5 6 6 6 6 6 5 5 5 4 4 4 4 4 4 4
2 3 1 7 4 1 3 1 3 6 6 6 8 6 5 5 6 6 5 5 4 3 3 2 2 3 4 5 6 5 5 5 5 5 5 5 5 4 4 4 4 4 4 3
4 1 3 4 3 1 4 3 2 7 7 7 8 8 6 5 6 5 4 4 3 3 3 2 3 3 5 5 5 5 5 5 5 5 5 5 4 4 4 5 5 4 3 3
4 3 3 5 5 1 6 2 2 5 7 6 6 6 0 2 5 6 6 5 4 4 5 4 3 4 5 4 4 4 4 5 5 5 5 5 5 4 4 5 5 4 4 3
4 2 4 5 6 3 4 5 2 4 6 5 5 5 4 4 6 6 6 6 6 6 5 4 3 4 5 3 2 2 3 4 4 4 5 5 5 5 5 5 6 5 5 5
4 3 5 5 2 2 4 3 3 5 6 8 8 7 6 6 6 6 6 7 6 6 5 4 4 5 5 3 1 2 4 4 5 4 4 5 6 5 6 6 6 5 5 5
6 6 5 1 3 3 5 6 4 5 6 9 9 7 6 5 5 5 4 4 4 4 4 3 3 4 5 2 2 4 6 6 6 7 6 6 6 5 5 5 5 4 4 4
3 0 1 4 6 6 6 6 5 7 7 8 9 7 6 5 4 4 4 3 3 4 5 4 3 4 4 3 4 6 6 6 7 8 7 7 5 5 4 4 4 3 4 3
2 1 4 5 5 6 7 8 8 8 7 7 8 7 6 5 4 4 3 3 3 4 5 4 4 4 4 4 5 7 7 6 7 7 7 8 7 6 5 4 3 4 3 3
3 4 3 2 1 4 8 7 7 7 6 5 6 6 6 5 4 4 4 3 4 5 5 4 4 4 4 4 6 7 7 6 5 6 6 6 7 8 12 9 9 8 7 6
3 2 3 3 2 4 6 6 6 6 5 5 4 5 6 5 4 4 4 4 5 5 5 5 5 5 4 4 5 6 6 5 5 5 6 5 6 7 7 8 11 11 9 9
2 4 4 3 3 4 6 6 7 7 5 5 5 5 5 5 5 4 4 4 5 5 5 5 6 5 4 4 6 6 6 6 6 5 5 5 5 5 6 6 5 5 6 8
2 3 4 3 4 5 5 7 7 5 4 4 5 6 5 5 5 4 4 5 6 6 5 5 6 4 3 5 6 5 5 5 5 5 5 5 5 5 6 6 5 4 3 4
3 4 5 6 5 5 5 6 7 5 4 5 6 6 6 6 6 6 5 5 6 5 4 4 4 3 3 4 5 5 5 8 7 6 5 5 5 5 5 5 5 4 4 3
4 3 4 5 5 4 5 5 6 6 6 6 6 7 7 8 7 6 5 5 5 5 4 4 3 3 4 4 5 4 5 6 9 6 5 5 5 5 5 5 5 4 3 3
5 5 5 5 5 5 5 5 6 6 6 7 7 7 7 7 7 6 4 5 6 5 4 3 3 4 4 4 4 4 4 4 4 5 4 4 5 4 5 5 5 5 3 4
6 5 5 5 6 7 6 5 5 5 6 7 8 7 6 5 5 5 5 5 5 4 2 2 4 5 4 4 5 4 4 5 5 4 5 6 5 4 5 5 4 4 4 4
6 7 7 6 5 6 6 6 7 6 6 6 8 7 6 5 5 5 6 5 2 1 1 3 4 4 4 4 6 4 5 5 5 5 5 4 4 4 4 5 5 5 4 4
7 7 7 7 6 6 6 7 7 7 6 6 7 7 6 5 4 5 5 4 2 2 3 4 4 3 4 4 6 4 4 5 5 4 4 4 4 4 4 5 5 5 5 5
6 7 7 7 7 6 5 6 7 7 7 6 6 7 7 6 5 4 4 2 2 3 3 3 3 5 5 6 4 4 4 5 4 4 4 4 4 4 5 5 5 5 5 5
5 6 6 6 7 6 6 6 6 7 7 6 6 6 6 4 3 4 3 1 2 5 4 4 5 7 7 5 4 4 4 4 4 4 4 4 4 5 5 6 5 5 5 5
5 5 5 6 7 8 7 5 5 5 6 5 5 5 5 4 3 2 3 4 5 6 4 5 7 8 7 4 4 4 4 4 4 4 4 4 5 5 5 5 5 5 5 5
5 5 6 7 7 6 6 6 6 6 6 5 5 5 4 3 4 3 3 4 6 6 4 5 7 7 5 4 4 4 4 4 4 5 5 5 5 5 5 5 5 5 4 4
5 5 5 5 5 5 5 5 4 4 5 5 4 4 3 3 4 3 3 4 6 6 4 4 4 5 4 4 5 5 4 5 5 5 5 5 5 5 5 6 6 5 4 4
5 4 4 4 4 4 4 4 5 5 4 5 5 4 4 4 3 4 4 4 4 4 4 4 4 4 5 5 5 5 5 5 5 5 5 5 5 5 5 6 5 4 4 4
Wind_Direction
188 197 150 221 243 208 163 178 179 208 196 216 200 142 119 105 97 93 95 100 109 128 150 157 157 162 172 174 169 167 166 176 187 186 174 166 169 170 166 165 167 155 148 152
10 12 23 331 278 225 199 174 168 150 196 219 131 103 90 88 93 93 97 109 115 118 121 148 151 154 157 154 156 156 163 177 179 173 167 165 169 163 156 153 150 139 144 131
348 339 37 316 264 222 222 185 158 167 186 137 103 94 107 103 90 90 88 88 86 98 114 129 139 140 149 152 143 151 164 170 173 173 172 171 167 155 156 156 140 129 122 118
82 48 207 250 280 114 119 48 122 130 141 133 123 113 92 92 92 81 77 74 65 56 57 75 98 114 129 128 129 150 166 167 163 160 161 160 156 157 157 147 136 127 125 131
104 125 278 301 329 35 105 36 63 124 128 123 121 85 48 44 73 87 88 80 74 71 76 76 93 106 118 128 139 152 161 163 161 158 152 151 153 152 143 130 124 121 122 131
111 131 217 257 285 290 98 66 333 125 136 140 109 97 122 35 67 70 69 63 57 54 68 74 74 90 103 119 127 149 163 165 160 152 151 155 150 140 127 122 123 117 104 93
134 172 260 269 293 37 115 202 230 132 136 121 107 146 153 104 75 76 77 65 59 57 58 57 61 80 84 88 116 162 144 137 134 142 151 144 131 120 113 114 108 102 97 83
142 163 250 291 6 112 189 178 130 98 100 102 105 103 96 91 85 76 71 66 62 62 51 41 46 69 66 49 36 84 100 106 108 113 126 121 114 110 109 111 109 103 95 83
171 197 229 248 125 125 133 114 98 98 110 115 110 106 99 91 89 84 77 79 86 90 70 43 44 78 82 44 58 81 85 89 92 87 87 90 96 99 97 97 102 102 103 97
97 137 114 84 85 84 94 100 101 106 112 115 115 114 106 97 88 84 81 84 88 95 86 58 44 67 81 70 71 85 89 91 94 95 90 82 85 88 93 94 100 103 108 108
100 105 51 40 63 91 86 83 85 85 90 110 117 115 111 102 96 95 92 77 76 88 89 72 54 57 66 72 81 85 88 92 96 97 101 94 83 72 83 83 108 128 128 123
191 210 152 178 97 88 93 91 93 90 76 78 103 114 111 108 107 105 98 89 84 83 83 74 64 62 59 73 91 98 95 93 101 105 103 105 104 83 58 68 74 83 91 103
174 185 152 148 117 97 106 109 105 99 98 89 83 103 110 107 101 97 95 99 99 95 90 81 67 58 53 59 84 96 105 108 109 111 113 115 114 110 98 67 61 67 76 87
118 103 89 92 102 91 104 104 95 93 93 94 95 95 98 99 99 101 103 105 103 96 88 82 77 66 55 68 82 88 92 97 107 111 114 115 115 112 111 110 95 63 54 71
89 119 137 126 99 96 107 107 97 95 101 99 102 105 108 108 106 104 102 100 94 86 79 78 77 68 64 78 87 90 92 96 99 103 104 105 108 107 105 104 104 98 80 60
111 103 111 108 103 107 112 110 110 110 106 99 100 102 104 103 96 92 89 93 95 91 86 83 81 77 81 88 90 87 91 101 104 108 110 109 107 108 111 111 109 105 100 95
132 131 120 112 108 110 111 113 115 115 108 106 107 104 100 99 93 87 82 83 88 87 84 86 82 77 81 89 96 101 104 109 110 108 112 116 115 113 113 114 115 112 105 99
157 158 153 144 133 122 111 110 110 109 109 113 109 105 104 106 108 105 97 88 82 71 60 65 78 83 87 96 102 106 109 111 112 114 112 115 118 118 116 115 115 113 104 96
127 128 130 129 131 128 121 115 110 107 105 108 107 106 108 110 111 109 101 90 86 77 45 53 70 78 82 93 100 105 109 110 108 106 108 111 111 112 114 116 115 115 113 105
122 123 123 122 123 124 124 123 116 110 107 110 108 105 101 100 104 103 96 86 83 93 79 74 76 77 81 91 95 98 105 109 111 109 107 109 112 113 114 117 117 114 108 102
127 124 124 123 117 112 117 123 121 118 114 114 115 117 115 105 100 101 100 87 36 54 72 78 79 80 80 89 89 92 98 102 105 109 111 111 109 108 108 108 109 109 105 101
122 118 120 119 116 110 110 115 119 119 117 116 116 118 115 109 100 90 86 103 94 82 82 79 83 85 87 89 89 92 96 102 105 106 106 109 112 111 108 107 105 102 101 101
118 117 117 122 123 118 109 111 118 121 121 123 124 123 122 122 120 118 106 84 94 94 91 91 92 89 91 89 92 95 98 101 107 111 111 112 113 112 112 111 108 107 106 103
118 122 127 127 122 118 119 120 115 118 118 117 118 122 122 113 93 91 114 111 105 101 96 98 92 90 88 84 88 92 96 101 105 111 113 111 109 108 110 110 107 106 107 106
126 124 124 122 122 125 128 123 113 111 111 109 107 107 109 117 122 119 112 111 111 106 96 95 95 92 89 87 92 98 99 99 106 106 104 105 107 108 109 109 110 109 109 109
114 118 120 119 123 125 125 123 122 125 123 118 112 110 109 106 108 109 105 107 107 106 101 98 98 94 90 87 86 88 91 94 93 93 99 102 104 106 107 108 109 110 111 110
99 100 103 102 104 114 120 122 125 126 126 128 124 121 119 116 112 109 106 105 104 100 97 97 96 94 91 88 86 85 86 88 91 95 98 99 102 106 111 113 114 115 114 114